Terug naar catalogus

SCOUT G-1 DEB

ActiefPO
NORAD 29207·DEBRIS·🇺🇸 United States

Gelanceerd Sep 16, 1987 vanaf Vandenberg Space Force Base

Loading…

Volgende Passages (komende 24 uur)

TLE

VerouderendSource: Space-Track

Epoch: Sep 5, 2026, 05:44 UTC

1 29207U 87080K   26248.23917359  .00001296  00000-0  87043-3 0  9997
2 29207  90.2993  51.5337 0104744  56.0166 305.0911 13.97670255984513

Volg SCOUT G-1 DEB in realtime met AllMySat

Download on the App Store